Weather History for CWYL - February, 2014

Change the Weather History Date:

Friday, February 14, 2014

  Actual Average Record
Temperature  
Mean Temperature 23 °F -  
Max Temperature 27 °F - - ()
Min Temperature 19 °F - - ()
Degree Days  
Heating Degree Days 42    
Moisture  
Dew Point 22 °F    
Average Humidity 95    
Maximum Humidity 100    
Minimum Humidity 83    
Precipitation  
Precipitation 0.23 in - - ()
Sea Level Pressure  
Sea Level Pressure 29.72 in    
Wind  
Wind Speed 10 mph ()    
Max Wind Speed 20 mph    
Max Gust Speed -    
T = Trace of Precipitation, MM = Missing Value Source: Averaged Metar Reports

Daily Weather History Graph

Daily Weather History Graph

Search for Another Location

Airport or City:

Trip Planner

Search our weather history database for the weather conditions in past years. The results will help you decide how hot, cold, wet, or windy it might be!

Date:

Astronomy

Feb. 14, 2014 Rise Set
Actual Time 8:00 AM MST 5:59 PM MST
Civil Twilight 7:26 AM MST 6:33 PM MST
Nautical Twilight 6:47 AM MST 7:12 PM MST
Astronomical Twilight 6:08 AM MST 7:51 PM MST
Moon 6:13 PM MST (2/14) 7:25 AM MST (2/14)
Length of Visible Light 11h 07m
Length of Day
9h 58m
Full, 100% of the Moon is Illuminated
Feb 14
Full
Feb 14
Full
Feb 22
Last Quarter
Mar 1
New
Mar 8
First Quarter

Hourly Weather History & Observations

Time (MST) Temp. Windchill Dew Point Humidity Pressure Visibility Wind Dir Wind Speed Gust Speed Precip Events Conditions
12:00 AM 22.3 °F 9.7 °F 21.7 °F 98% 29.87 in - West 13.8 mph - N/A   Unknown
1:00 AM 22.5 °F 9.4 °F 22.3 °F 99% 29.88 in - West 15.0 mph - N/A   Unknown
2:00 AM 22.6 °F 11.9 °F 21.9 °F 97% 29.86 in - West 10.4 mph - N/A   Unknown
3:00 AM 21.2 °F 10.9 °F 20.5 °F 97% 29.86 in - West 9.2 mph - N/A   Unknown
4:00 AM 22.3 °F 10.8 °F 21.9 °F 99% 29.87 in - West 11.5 mph - N/A   Unknown
5:00 AM 21 °F - 20 °F 93% 29.85 in - WSW 9.2 mph - -  
5:00 AM 20.7 °F 10.2 °F 19.8 °F 96% 29.85 in - WSW 9.2 mph - N/A   Unknown
6:00 AM 19.6 °F - 18.7 °F 96% 29.84 in - WNW 1.2 mph - N/A   Unknown
7:00 AM 19.4 °F 9.5 °F 18.7 °F 97% 29.80 in - WSW 8.1 mph - N/A   Unknown
8:00 AM 20.3 °F - 19.8 °F 98% 29.76 in - SSW 2.3 mph - N/A   Unknown
9:00 AM 20.8 °F 16.0 °F 20.1 °F 97% 29.73 in - ENE 3.5 mph - N/A   Unknown
10:00 AM 22.6 °F - 21.0 °F 93% 29.67 in - Calm Calm - N/A   Unknown
11:00 AM 25 °F - 22 °F 83% 29.63 in - WSW 9.2 mph - -  
11:00 AM 25.0 °F 15.5 °F 21.9 °F 88% 29.63 in - WSW 9.2 mph - N/A   Unknown
12:00 PM 26.6 °F 16.8 °F 23.0 °F 86% 29.59 in - WSW 10.4 mph - N/A   Unknown
1:00 PM 25.7 °F 14.0 °F 22.5 °F 88% 29.57 in - West 13.8 mph - N/A   Unknown
2:00 PM 26.6 °F 13.1 °F 22.8 °F 86% 29.54 in - West 19.6 mph - N/A   Unknown
3:00 PM 26.1 °F 13.1 °F 23.4 °F 90% 29.57 in - West 17.3 mph - N/A   Unknown
4:00 PM 25.5 °F 13.3 °F 25.7 °F 100% 29.58 in - West 15.0 mph - N/A   Unknown
5:00 PM 25 °F - 24 °F 94% 29.62 in - West 15.0 mph - -  
5:00 PM 25.0 °F 12.6 °F 25.7 °F 100% 29.62 in - West 15.0 mph - N/A   Unknown
6:00 PM 24.4 °F 11.9 °F 23.7 °F 97% 29.64 in - West 15.0 mph - N/A   Unknown
7:00 PM 24.1 °F 12.5 °F 23.5 °F 98% 29.66 in - West 12.7 mph - N/A   Unknown
8:00 PM 24.1 °F 12.0 °F 23.7 °F 99% 29.70 in - West 13.8 mph - N/A   Unknown
9:00 PM 23.7 °F 11.0 °F 23.4 °F 99% 29.72 in - West 15.0 mph - N/A   Unknown
10:00 PM 23.7 °F 11.5 °F 23.4 °F 99% 29.73 in - West 13.8 mph - N/A   Unknown
11:00 PM 24 °F - 24 °F 98% 29.75 in - West 13.8 mph - -  
11:00 PM 24.1 °F 12.0 °F 23.7 °F 99% 29.75 in - West 13.8 mph - N/A   Unknown